Location: Palmerston North
(40.3500°S, 175.6170°E)
Time: 16:14:57
(UTC+13:00)

ISS - Pass Details

Date: 28 January 2019
Orbit: 403 x 411 km, 51.6° (Epoch: 17 February)

Event Time Altitude Azimuth Distance (km) Brightness Sun altitude
Exits shadow 05:31:08 - 338° (NNW) 1,606 -1.3 -8.9°
Reaches altitude 10° 05:31:28 10° 340° (NNW) 1,481 -1.5 -8.8°
Maximum altitude 05:34:28 32° 45° (NE) 743 -2.4 -8.4°
Drops below altitude 10° 05:37:30 10° 109° (ESE) 1,493 0.6 -7.9°
Sets 05:39:44 0° 119° (ESE) 2,360 2.7 -7.5°
